Meadow Lake, CO

10:01 AM MST on January 18, 2018 (GMT -0700)
Meadow Lake

Weather History for KFLY - August, 2012

Change the Weather History Date:

Friday, August 10, 2012

  Actual Average (KCOS) Record (KCOS)
Temperature  
Mean Temperature 67 °F -  
Max Temperature 81 °F 79 °F 96 °F (1962)
Min Temperature 53 °F 54 °F 41 °F (1903)
Cooling Degree Days 2    
Growing Degree Days 17 (Base 50)    
Moisture  
Dew Point 45 °F    
Average Humidity 47    
Maximum Humidity 70    
Minimum Humidity 27    
Precipitation  
Precipitation 0.00 in - - ()
Sea Level Pressure  
Sea Level Pressure 30.33 in    
Wind  
Wind Speed 6 mph (South)    
Max Wind Speed 16 mph    
Max Gust Speed 28 mph    
Visibility 10 miles    
Events Thunderstorm    
Averages and records for this station are not official NWS values.
T = Trace of Precipitation, MM = Missing Value Source: NWS Daily Summary

Daily Weather History Graph

Daily Weather History Graph

Search for Another Location

Airport or City:

Trip Planner

Search our weather history database for the weather conditions in past years. The results will help you decide how hot, cold, wet, or windy it might be!

Date:

Astronomy

Aug. 10, 2012 Rise Set
Actual Time 6:07 AM MDT 7:58 PM MDT
Civil Twilight 5:38 AM MDT 8:27 PM MDT
Nautical Twilight 5:03 AM MDT 9:02 PM MDT
Astronomical Twilight 4:26 AM MDT 9:39 PM MDT
Moon No Moon Rise 2:40 PM MDT (8/10)
Length of Visible Light 14h 48m
Length of Day
13h 51m
Last Quarter, 41% of the Moon is Illuminated
Aug 10
Last Quarter
Aug 17
New
Aug 24
First Quarter
Aug 31
Full
Sep 8
Last Quarter

Hourly Weather History & Observations

Time (MDT) Temp. Dew Point Humidity Pressure Visibility Wind Dir Wind Speed Gust Speed Precip Events Conditions
12:13 AM 63.3 °F 45.5 °F 52% 30.38 in 10.0 mi SSE 8.1 mph - N/A   Clear
12:33 AM 62.6 °F 45.7 °F 54% 30.37 in 10.0 mi SW 6.9 mph - N/A   Clear
12:53 AM 64.0 °F 45.9 °F 52% 30.38 in 10.0 mi SSW 5.8 mph - N/A   Clear
1:13 AM 63.0 °F 46.0 °F 54% 30.38 in 10.0 mi South 5.8 mph - N/A   Clear
1:33 AM 61.0 °F 46.0 °F 58% 30.38 in 10.0 mi SSW 4.6 mph - N/A   Clear
1:53 AM 61.0 °F 46.4 °F 59% 30.37 in 10.0 mi SSE 6.9 mph - N/A   Clear
2:13 AM 60.3 °F 46.0 °F 59% 30.37 in 10.0 mi SE 9.2 mph - N/A   Clear
2:33 AM 59.4 °F 46.2 °F 62% 30.37 in 10.0 mi SSE 6.9 mph - N/A   Clear
2:53 AM 59.0 °F 45.9 °F 62% 30.37 in 10.0 mi SSE 6.9 mph - N/A   Clear
3:13 AM 57.6 °F 45.7 °F 65% 30.37 in 10.0 mi Calm Calm - N/A   Clear
3:33 AM 58.3 °F 45.5 °F 62% 30.38 in 10.0 mi Calm Calm - N/A   Clear
3:53 AM 57.7 °F 44.8 °F 62% 30.37 in 10.0 mi Calm Calm - N/A   Clear
4:13 AM 56.1 °F 44.6 °F 65% 30.38 in 10.0 mi North 4.6 mph - N/A   Clear
4:33 AM 54.1 °F 44.6 °F 70% 30.38 in 10.0 mi North 4.6 mph - N/A   Clear
4:53 AM 55.6 °F 44.8 °F 67% 30.38 in 10.0 mi Calm Calm - N/A   Clear
5:13 AM 55.2 °F 44.2 °F 67% 30.37 in 10.0 mi Calm Calm - N/A   Clear
5:33 AM 55.4 °F 43.9 °F 65% 30.37 in 10.0 mi Calm Calm - N/A   Clear
5:53 AM 54.1 °F 43.9 °F 68% 30.38 in 10.0 mi Calm Calm - N/A   Clear
6:13 AM 53.8 °F 43.7 °F 69% 30.38 in 10.0 mi NW 4.6 mph - N/A   Clear
6:33 AM 53.8 °F 43.9 °F 69% 30.38 in 10.0 mi NNW 4.6 mph - N/A   Mostly Cloudy
6:53 AM 56.3 °F 44.4 °F 64% 30.38 in 10.0 mi ENE 4.6 mph - N/A   Overcast
7:13 AM 57.2 °F 44.6 °F 63% 30.38 in 10.0 mi East 4.6 mph - N/A   Overcast
7:33 AM 58.6 °F 44.6 °F 60% 30.39 in 10.0 mi ENE 5.8 mph - N/A   Scattered Clouds
7:53 AM 60.4 °F 44.4 °F 56% 30.39 in 10.0 mi East 5.8 mph - N/A   Clear
8:13 AM 61.0 °F 45.1 °F 56% 30.38 in 10.0 mi ESE 6.9 mph - N/A   Clear
8:33 AM 61.7 °F 45.5 °F 55% 30.39 in 10.0 mi SE 4.6 mph - N/A   Clear
8:53 AM 63.1 °F 45.9 °F 53% 30.38 in 10.0 mi SE 5.8 mph - N/A   Clear
9:13 AM 64.6 °F 46.0 °F 51% 30.38 in 10.0 mi SSE 5.8 mph - N/A   Clear
9:53 AM 66.2 °F 46.2 °F 49% 30.38 in 10.0 mi SSE 9.2 mph - N/A   Mostly Cloudy
10:13 AM 68.0 °F 46.0 °F 45% 30.37 in 10.0 mi SSE 9.2 mph - N/A   Scattered Clouds
10:33 AM 69.8 °F 46.4 °F 43% 30.36 in 10.0 mi SSE 8.1 mph - N/A   Clear
10:53 AM 70.7 °F 46.6 °F 42% 30.36 in 10.0 mi SSE 6.9 mph - N/A   Clear
11:13 AM 72.0 °F 46.6 °F 40% 30.36 in 10.0 mi South 6.9 mph - N/A   Clear
11:33 AM 73.9 °F 46.8 °F 38% 30.35 in 10.0 mi South 6.9 mph - N/A   Clear
11:53 AM 74.3 °F 46.4 °F 37% 30.35 in 10.0 mi South 10.4 mph - N/A   Clear
12:13 PM 74.3 °F 46.2 °F 37% 30.34 in 10.0 mi SE 8.1 mph - N/A   Clear
12:33 PM 76.3 °F 45.7 °F 34% 30.33 in 10.0 mi SSW 5.8 mph - N/A   Clear
12:53 PM 77.4 °F 45.9 °F 33% 30.33 in 10.0 mi South 9.2 mph 19.6 mph N/A   Clear
1:13 PM 78.1 °F 45.5 °F 32% 30.32 in 10.0 mi South 8.1 mph 16.1 mph N/A   Clear
1:33 PM 79.7 °F 45.7 °F 30% 30.31 in 10.0 mi South 9.2 mph 17.3 mph N/A   Clear
1:53 PM 80.6 °F 44.6 °F 28% 30.30 in 10.0 mi SE 11.5 mph 17.3 mph N/A   Clear
2:13 PM 79.5 °F 45.0 °F 29% 30.30 in 10.0 mi South 10.4 mph 16.1 mph N/A   Clear
2:33 PM 79.2 °F 44.6 °F 29% 30.29 in 10.0 mi SE 8.1 mph 16.1 mph N/A   Clear
2:53 PM 78.8 °F 44.4 °F 30% 30.29 in 10.0 mi South 9.2 mph - N/A   Clear
3:13 PM 78.4 °F 44.2 °F 30% 30.28 in 10.0 mi South 5.8 mph - N/A   Clear
3:33 PM 78.8 °F 43.7 °F 29% 30.28 in 10.0 mi SE 6.9 mph - N/A   Clear
3:53 PM 77.9 °F 44.2 °F 30% 30.28 in 10.0 mi South 10.4 mph 16.1 mph N/A   Clear
4:13 PM 77.9 °F 43.5 °F 29% 30.28 in 10.0 mi SSE 5.8 mph - N/A Thunderstorm Clear
4:33 PM 78.8 °F 43.9 °F 29% 30.28 in 10.0 mi SSE 5.8 mph 9.2 mph N/A   Clear
4:53 PM 79.0 °F 43.7 °F 29% 30.27 in 10.0 mi South 6.9 mph - N/A   Clear
5:13 PM 79.7 °F 43.7 °F 28% 30.27 in 10.0 mi SSE 8.1 mph - N/A   Clear
5:33 PM 80.4 °F 43.9 °F 27% 30.26 in 10.0 mi South 10.4 mph 16.1 mph N/A   Clear
5:53 PM 81.9 °F 44.4 °F 27% 30.25 in 10.0 mi SW 10.4 mph - N/A   Clear
6:13 PM 79.7 °F 44.4 °F 29% 30.25 in 10.0 mi WSW 10.4 mph - N/A   Clear
6:33 PM 77.4 °F 42.1 °F 28% 30.25 in 10.0 mi WSW 3.5 mph - N/A   Clear
6:53 PM 76.1 °F 43.2 °F 31% 30.25 in 10.0 mi SSE 4.6 mph - N/A   Clear
7:13 PM 75.2 °F 44.4 °F 33% 30.26 in 10.0 mi SSW 12.7 mph - N/A   Clear
7:33 PM 74.3 °F 45.9 °F 36% 30.27 in 10.0 mi SSW 11.5 mph - N/A   Scattered Clouds
7:53 PM 73.6 °F 46.4 °F 38% 30.27 in 10.0 mi SSW 10.4 mph - N/A   Mostly Cloudy
8:33 PM 72.5 °F 45.1 °F 37% 30.27 in 10.0 mi South 11.5 mph - N/A   Overcast
8:53 PM 71.1 °F 44.8 °F 39% 30.28 in 10.0 mi South 16.1 mph 27.6 mph N/A   Scattered Clouds
9:13 PM 69.1 °F 45.7 °F 43% 30.28 in 10.0 mi South 9.2 mph 21.9 mph N/A   Clear
9:33 PM 67.3 °F 46.6 °F 47% 30.27 in 10.0 mi South 10.4 mph 16.1 mph N/A   Clear
9:53 PM 66.4 °F 47.1 °F 50% 30.27 in 10.0 mi SSW 9.2 mph 16.1 mph N/A   Clear
10:13 PM 66.4 °F 47.5 °F 51% 30.27 in 10.0 mi SSW 8.1 mph - N/A   Clear
10:34 PM 66.0 °F 47.7 °F 52% 30.26 in 10.0 mi Calm Calm - N/A   Clear
10:54 PM 65.3 °F 48.2 °F 54% 30.27 in 10.0 mi North 6.9 mph - N/A   Scattered Clouds
11:14 PM 64.4 °F 48.6 °F 56% 30.27 in 10.0 mi NW 3.5 mph - N/A   Mostly Cloudy
11:34 PM 63.7 °F 48.6 °F 58% 30.26 in 10.0 mi WNW 10.4 mph - N/A   Scattered Clouds
11:54 PM 64.4 °F 48.9 °F 57% 30.26 in 10.0 mi West 6.9 mph - N/A   Clear